Temperature
13 13 13 13 13 13 13 14 13 13 13 13 13 13 13 13 13 13 13 13 13 13 13 13 12 12 12 12 12 12 12 12 12 12 12 12 12 12 12 12 12 11 11
13 13 13 13 13 13 13 13 13 13 13 13 13 13 13 13 13 13 13 13 13 13 13 12 12 12 12 12 12 12 12 12 12 12 12 12 12 12 11 11 11 11 11
13 13 13 13 13 13 13 13 13 13 13 13 13 13 13 13 12 12 12 12 12 12 12 12 12 12 12 12 12 12 12 12 12 12 12 11 11 11 11 11 11 11 11
13 13 13 13 13 13 13 13 13 12 12 12 12 12 12 12 12 12 12 12 12 12 12 12 12 12 12 12 12 12 12 11 11 11 11 11 11 11 11 11 11 11 11
12 12 12 12 12 12 12 12 12 12 12 12 12 12 12 12 12 12 12 12 12 12 12 12 12 12 12 11 11 11 11 11 11 11 11 11 11 11 11 11 11 11 11
12 12 12 12 12 12 12 12 12 12 12 12 12 12 12 12 12 12 12 11 12 12 11 11 11 11 11 11 11 11 11 11 11 10 10 10 10 10 10 10 10 10 10
11 12 12 12 12 12 12 11 12 11 11 11 11 11 11 11 11 11 11 11 11 11 11 11 11 11 11 11 11 10 10 10 10 10 10 10 10 10 10 10 10 10 10
11 11 11 11 11 11 11 11 11 11 11 11 11 10 10 10 11 11 11 11 11 11 11 11 11 10 10 10 10 10 10 10 10 10 10 10 10 10 10 9 10 10 10
11 11 11 11 11 11 11 11 11 11 11 11 11 10 10 11 10 10 10 10 10 10 10 10 10 10 10 10 10 10 10 10 10 10 9 9 9 9 9 9 9 9 9
10 10 11 10 10 10 10 10 10 10 10 10 10 10 10 10 10 9 9 10 10 10 10 10 10 10 10 10 10 10 10 9 9 9 9 9 9 9 9 9 9 9 9
10 10 10 10 10 10 10 10 10 10 10 10 10 10 10 10 10 9 9 9 9 9 9 9 9 9 9 9 9 9 9 9 9 9 9 9 9 9 8 8 8 8 8
10 10 10 10 10 10 10 10 9 9 9 9 9 9 9 9 9 9 9 8 8 9 9 9 9 9 9 9 9 9 9 9 9 8 8 8 8 8 8 8 8 8 8
9 9 9 9 9 9 9 9 9 9 9 9 9 9 9 9 9 9 9 8 8 8 8 8 8 8 8 8 8 8 8 8 8 8 8 8 8 8 8 8 8 8 8
9 9 9 9 9 9 9 9 9 9 9 9 9 9 9 9 9 9 8 8 8 7 7 8 8 8 8 8 8 8 7 8 8 8 8 8 8 7 7 7 7 7 7
8 8 8 8 8 8 8 8 8 8 8 8 8 8 8 8 8 8 8 8 7 7 7 7 7 7 7 7 7 7 7 7 7 7 7 7 7 7 7 7 7 7 7
8 8 8 8 8 8 7 7 8 8 8 8 8 8 8 8 8 8 7 7 7 7 6 7 7 7 7 7 7 7 7 7 7 7 7 7 7 6 6 6 6 6 6
7 7 7 7 7 7 7 7 7 7 7 7 7 7 7 7 7 7 7 7 7 7 6 6 6 6 6 6 6 6 6 6 6 6 6 6 6 6 6 6 6 6 6
7 7 7 7 7 7 7 7 7 7 6 6 6 6 6 6 6 6 6 6 6 6 6 6 5 5 6 6 5 5 6 5 5 5 5 5 5 5 5 5 5 5 5
6 6 6 6 6 6 6 6 6 6 6 6 6 6 6 6 6 6 6 6 6 5 5 5 5 5 5 5 5 5 5 5 5 5 5 5 5 5 5 5 5 5 5
5 5 5 5 5 5 5 5 5 5 5 5 5 5 5 5 5 5 5 5 5 5 5 5 5 5 4 5 4 4 4 4 4 5 4 4 4 4 4 4 4 4 4
5 5 5 5 5 5 5 5 5 5 5 5 5 5 5 5 5 5 5 5 4 4 4 4 4 4 4 4 4 4 4 4 4 4 4 4 4 4 4 4 4 4 4
4 4 4 4 4 4 4 4 4 4 4 4 4 4 4 4 4 4 4 4 4 4 4 4 4 3 4 4 3 3 3 3 3 3 3 3 3 3 3 3 3 3 3
4 3 3 3 3 3 4 4 3 3 3 3 3 3 3 3 3 3 3 3 3 3 3 3 3 3 3 3 3 3 3 2 3 3 2 3 3 3 3 3 3 3 3
3 3 3 3 3 3 3 3 3 3 3 3 3 3 3 3 3 3 3 3 3 3 3 3 3 3 3 3 2 2 2 2 2 2 2 1 2 2 2 2 2 2 2
2 2 2 2 2 2 2 2 2 2 2 2 2 2 2 2 2 2 2 2 2 2 2 2 2 2 2 2 2 2 1 1 1 1 1 1 1 1 1 2 2 2 2
2 2 2 2 2 2 2 2 2 2 2 2 2 2 2 2 2 2 2 2 2 2 1 2 2 2 2 2 1 1 1 1 0 0 1 0 0 0 -0 0 1 1 1
Wind_Speed
6 6 5 5 5 5 5 4 4 5 5 5 6 6 6 5 4 4 4 4 2 2 2 1 1 1 0 1 1 2 1 1 2 3 3 3 3 3 3 3 3 3 2
6 6 5 4 4 5 4 4 4 4 4 4 5 5 5 5 5 4 4 5 4 2 2 1 1 1 1 1 2 2 1 2 2 2 2 3 3 3 3 3 3 2 2
6 6 5 4 4 5 5 4 4 4 3 4 5 5 4 4 4 5 4 4 4 4 3 2 1 1 1 2 2 2 2 2 2 2 2 3 3 3 2 3 3 3 3
7 6 5 5 5 4 4 3 3 4 4 4 4 4 4 4 5 5 4 4 3 3 3 2 1 0 1 1 2 2 2 2 2 1 2 2 2 2 3 3 3 3 3
8 6 5 5 5 4 3 3 3 3 4 4 3 3 3 4 4 4 4 4 3 3 2 3 2 1 1 1 2 2 2 2 2 2 2 2 3 3 4 4 4 3 4
7 6 5 5 5 4 3 3 4 3 3 3 3 3 2 3 3 3 4 3 3 3 2 1 1 1 0 1 2 2 2 2 2 2 3 3 3 4 4 5 4 4 4
6 5 4 5 4 4 4 4 3 3 2 2 3 2 2 2 3 3 3 3 2 2 2 1 1 1 1 0 1 2 3 2 3 3 4 4 4 5 5 5 5 5 5
6 5 5 4 5 4 4 4 3 3 2 2 3 3 3 3 3 2 3 2 2 2 2 2 2 2 2 1 1 2 3 3 4 4 4 4 5 5 6 5 5 5 6
5 5 5 4 5 5 4 5 4 4 3 3 2 2 2 3 2 2 3 3 2 2 2 1 2 2 1 1 1 1 2 3 4 5 5 5 6 6 6 6 6 7 7
5 5 5 5 5 4 5 5 4 4 4 3 3 1 1 1 2 2 3 3 2 2 2 1 1 1 1 2 1 2 2 3 4 4 5 6 6 7 7 7 7 7 7
3 4 4 5 4 4 5 5 5 4 4 4 3 3 2 2 2 2 3 2 2 2 2 2 2 1 2 2 1 1 2 3 4 5 5 6 6 7 7 7 7 6 7
2 3 3 3 4 4 5 5 5 6 5 4 4 4 3 3 3 3 3 3 3 2 2 2 1 1 1 1 1 1 2 2 4 4 5 6 7 7 7 7 7 7 7
2 2 3 3 3 3 4 4 5 5 6 5 5 4 4 4 3 3 3 3 3 2 2 2 2 1 1 1 1 1 2 2 3 4 6 6 6 6 6 7 7 8 8
2 2 2 2 3 4 4 4 4 4 4 5 5 4 4 4 4 3 3 3 3 3 3 3 2 2 2 2 2 1 3 2 3 4 5 6 6 6 7 7 8 9 8
2 2 2 2 2 3 3 4 4 4 4 4 4 4 4 3 3 3 4 4 5 4 5 3 2 2 2 2 2 3 3 3 4 4 5 5 6 6 7 7 8 8 8
2 2 3 2 2 2 3 3 3 4 4 4 3 4 3 3 3 3 4 4 5 5 5 3 3 3 3 3 4 4 4 3 4 4 5 5 5 6 6 7 7 8 8
2 2 2 3 3 3 3 4 4 4 4 4 4 4 4 3 3 3 3 3 4 5 6 5 4 4 4 4 4 4 5 4 4 4 5 6 5 6 6 7 7 8 8
2 2 2 3 3 3 3 4 4 4 4 4 4 5 4 3 4 4 4 4 4 5 5 6 4 4 5 5 5 4 4 4 5 5 5 6 6 6 7 7 7 8 8
2 2 2 2 2 3 3 3 4 4 4 5 5 5 5 5 5 4 5 4 4 4 4 5 5 4 4 4 4 4 4 4 4 5 6 6 6 7 8 8 8 8 8
2 2 2 2 2 3 3 3 4 4 5 5 5 5 6 6 6 6 5 5 5 4 5 5 5 4 4 4 4 4 4 4 4 4 5 5 7 7 7 8 8 8 8
2 2 2 2 3 3 3 3 4 5 5 5 5 5 5 5 6 6 5 6 6 5 5 5 5 4 4 4 5 4 5 4 5 3 4 4 5 5 6 7 7 7 8
2 2 2 3 3 3 3 4 4 4 5 6 5 5 5 5 6 6 7 7 7 7 7 6 6 7 7 6 5 5 4 4 4 3 4 5 4 5 5 6 7 9 9
2 3 3 3 4 4 4 5 5 5 5 5 6 5 5 5 6 6 6 7 8 9 10 9 9 9 8 7 7 7 7 6 6 4 4 6 5 6 5 6 8 9 9
3 3 4 4 4 4 5 6 6 6 5 5 5 6 6 6 6 6 6 6 7 8 9 8 9 9 8 7 7 8 7 6 5 4 5 6 5 6 5 6 8 8 8
3 3 4 5 5 5 5 6 6 4 4 5 5 6 6 6 6 6 6 7 7 7 6 8 10 9 9 8 8 6 6 5 6 5 4 4 4 5 6 6 6 7 8
4 4 4 5 5 6 6 7 7 4 5 5 5 5 6 7 6 6 7 7 8 8 6 6 7 7 8 8 9 9 8 7 5 5 4 4 4 3 4 4 4 5 7
Wind_Direction
179 175 174 173 173 176 178 178 181 182 186 187 189 191 189 191 193 190 161 148 162 165 162 164 152 158 174 321 303 312 321 342 349 353 351 346 339 331 324 330 327 318 329
181 177 177 177 175 178 179 181 182 185 188 190 190 191 191 191 190 187 175 159 159 164 178 208 220 204 246 288 297 299 311 316 317 318 328 338 343 338 327 325 324 319 327
185 178 178 179 176 179 178 179 181 184 187 191 190 191 190 191 185 184 183 182 174 169 176 203 229 244 282 287 288 300 307 298 295 297 322 330 326 333 328 319 313 311 310
186 180 181 180 174 173 173 175 185 188 190 193 189 186 188 186 191 187 182 180 181 184 170 162 187 270 327 303 292 299 300 300 299 317 334 334 333 325 325 319 303 294 294
186 184 182 177 173 170 172 177 183 196 198 191 187 186 187 187 190 189 185 180 179 180 174 135 129 108 325 306 317 314 307 305 312 315 315 315 318 311 309 311 306 296 293
181 181 174 172 172 172 174 181 179 184 197 189 176 181 185 188 191 196 196 185 183 185 185 187 194 145 71 326 320 310 319 317 313 307 301 303 305 307 304 298 296 292 288
171 174 170 169 175 176 177 182 181 178 176 185 182 177 180 189 194 198 202 199 191 192 196 212 244 271 260 245 335 335 332 317 310 303 296 295 301 304 303 298 296 297 292
170 171 171 175 178 174 174 178 183 184 177 182 195 184 193 193 198 201 201 209 216 210 216 230 246 263 277 286 352 348 339 317 302 300 298 293 293 300 295 292 294 297 298
170 165 173 180 182 180 182 183 185 191 187 180 194 205 197 212 195 187 199 206 216 231 232 238 248 253 270 277 289 357 351 332 309 299 297 300 302 300 297 290 288 291 293
176 174 173 178 187 185 190 191 188 197 192 185 181 221 258 180 196 197 193 200 214 236 245 256 252 243 251 262 271 353 346 332 324 307 300 301 303 304 302 294 291 293 295
177 179 180 183 190 193 195 197 195 195 201 200 192 185 196 208 214 218 221 216 224 229 240 262 251 244 247 246 251 333 332 324 326 317 313 315 315 312 312 312 305 306 306
179 180 178 186 193 198 196 199 202 201 203 206 205 201 197 204 209 214 228 233 244 249 250 250 251 257 259 250 251 334 297 297 318 318 316 314 316 315 314 316 313 309 310
185 198 195 194 198 201 197 197 201 207 208 209 212 212 213 220 225 227 227 235 252 259 244 234 229 254 258 275 294 349 294 289 308 313 309 310 314 317 313 313 312 307 303
195 197 199 195 197 201 201 198 197 205 207 212 220 218 218 224 219 224 229 228 243 249 237 242 233 234 242 272 316 300 304 313 311 310 311 314 312 309 305 304 302 302 304
180 180 186 195 197 195 199 200 199 202 204 211 217 218 221 224 229 229 231 226 229 244 246 244 230 226 250 275 296 280 291 308 305 303 306 306 303 303 303 303 303 301 301
188 177 178 185 196 201 198 198 201 206 204 212 211 215 228 230 230 232 232 235 236 240 246 241 242 246 253 271 271 272 278 280 279 290 294 295 295 301 306 308 307 306 304
189 193 201 194 194 205 209 204 208 209 212 217 216 219 229 229 228 231 233 236 239 238 243 250 253 247 246 259 270 270 271 270 273 274 281 284 287 295 299 301 303 304 304
191 200 198 194 196 206 214 212 211 213 216 221 225 226 229 228 228 229 228 230 239 242 243 250 253 249 252 251 259 263 269 269 274 272 270 275 277 286 292 293 295 298 299
189 192 192 192 199 209 214 218 220 220 222 227 228 227 230 227 229 226 228 231 236 242 243 244 249 249 256 248 255 264 266 274 279 271 264 269 276 284 286 285 287 291 293
193 201 213 215 216 218 218 218 223 227 229 233 233 230 232 231 233 228 228 230 230 232 236 237 244 245 251 255 251 257 270 274 278 279 263 268 273 276 275 275 277 283 287
205 204 213 224 231 233 230 224 229 232 234 237 238 238 238 238 240 241 235 232 230 230 235 241 244 245 245 243 245 252 260 272 278 270 274 274 277 275 273 269 268 276 283
210 215 222 230 240 242 227 233 240 240 240 237 238 242 243 239 237 238 240 239 237 234 236 241 249 244 246 246 244 248 256 270 276 261 273 278 276 272 271 269 276 281 282
213 224 231 233 242 247 233 233 236 242 244 246 243 243 245 244 238 243 240 236 240 240 242 246 249 249 249 244 240 243 245 253 264 268 271 272 269 270 271 271 277 280 282
226 235 240 241 245 246 236 230 230 238 244 247 246 247 249 251 247 249 254 252 251 248 244 245 250 254 252 245 239 241 245 256 275 265 253 263 269 271 278 272 272 277 281
237 245 245 243 244 247 237 231 232 237 240 247 252 252 251 253 248 249 255 256 260 259 252 248 255 257 256 248 242 238 235 242 266 264 244 252 267 279 279 270 261 266 275
240 247 249 246 244 248 240 234 234 232 239 248 252 252 249 252 255 252 256 257 259 264 263 261 258 254 250 242 233 232 230 232 251 258 236 234 255 269 274 263 265 271 275
Height
1523 1525 1527 1528 1530 1531 1532 1534 1535 1536 1537 1538 1539 1540 1541 1542 1542 1543 1543 1544 1544 1544 1544 1544 1544 1544 1544 1544 1544 1543 1543 1542 1542 1541 1541 1540 1539 1539 1538 1538 1537 1537 1536
1521 1523 1524 1526 1528 1529 1530 1532 1533 1534 1535 1536 1537 1538 1539 1540 1541 1541 1542 1542 1542 1543 1543 1543 1543 1543 1542 1542 1542 1542 1541 1540 1540 1540 1539 1539 1538 1537 1537 1536 1536 1535 1534
1519 1520 1522 1524 1526 1527 1528 1530 1531 1532 1533 1533 1534 1536 1537 1538 1539 1539 1540 1541 1541 1541 1541 1541 1541 1541 1541 1540 1540 1539 1539 1539 1538 1538 1537 1537 1536 1536 1535 1535 1534 1534 1533
1516 1518 1520 1522 1523 1525 1526 1527 1529 1530 1531 1531 1532 1533 1535 1536 1537 1537 1538 1539 1539 1540 1540 1540 1540 1539 1539 1539 1538 1537 1537 1537 1536 1536 1535 1535 1534 1534 1533 1533 1532 1532 1531
1514 1516 1518 1519 1521 1522 1524 1525 1526 1528 1529 1529 1530 1531 1532 1533 1534 1535 1536 1537 1537 1538 1538 1538 1538 1537 1537 1537 1536 1536 1535 1535 1534 1534 1533 1533 1532 1532 1531 1531 1530 1529 1529
1511 1513 1515 1517 1518 1520 1521 1523 1524 1525 1526 1527 1528 1529 1530 1531 1532 1533 1534 1535 1535 1535 1536 1536 1536 1535 1535 1535 1534 1533 1533 1533 1532 1532 1531 1531 1530 1530 1529 1528 1528 1527 1526
1508 1510 1512 1514 1516 1517 1518 1520 1521 1523 1524 1525 1526 1527 1528 1529 1530 1531 1532 1533 1533 1533 1533 1533 1533 1533 1533 1532 1532 1531 1531 1530 1530 1530 1529 1529 1528 1527 1527 1526 1525 1524 1524
1506 1508 1509 1511 1513 1515 1516 1517 1519 1520 1521 1522 1524 1525 1527 1529 1528 1528 1529 1530 1530 1531 1531 1531 1531 1531 1531 1530 1529 1529 1528 1528 1528 1527 1527 1526 1526 1525 1524 1523 1522 1521 1521
1504 1505 1507 1509 1510 1511 1513 1514 1516 1518 1518 1520 1521 1523 1524 1525 1526 1526 1526 1527 1528 1528 1528 1529 1528 1528 1528 1528 1527 1526 1526 1526 1525 1524 1524 1523 1523 1522 1521 1520 1519 1519 1518
1502 1503 1504 1506 1508 1509 1510 1512 1513 1515 1516 1517 1518 1520 1521 1521 1523 1524 1525 1525 1525 1526 1526 1526 1526 1525 1525 1525 1524 1524 1523 1523 1522 1522 1521 1520 1520 1519 1518 1517 1516 1515 1514
1499 1501 1502 1503 1505 1506 1508 1509 1511 1512 1513 1515 1515 1516 1517 1518 1519 1521 1521 1522 1522 1523 1523 1523 1523 1522 1522 1522 1521 1521 1521 1520 1520 1519 1518 1517 1516 1516 1515 1514 1513 1512 1511
1496 1497 1499 1500 1502 1503 1505 1506 1508 1509 1510 1512 1513 1513 1514 1515 1516 1517 1518 1518 1519 1519 1519 1519 1520 1519 1519 1519 1518 1518 1518 1517 1517 1516 1515 1514 1513 1512 1511 1510 1509 1509 1507
1493 1494 1495 1497 1498 1500 1501 1503 1504 1505 1507 1508 1509 1510 1511 1512 1513 1514 1515 1515 1515 1516 1516 1516 1516 1516 1515 1515 1515 1515 1514 1514 1513 1512 1511 1510 1509 1508 1507 1507 1506 1505 1504
1490 1491 1492 1494 1495 1496 1498 1500 1500 1502 1503 1504 1505 1506 1507 1509 1510 1510 1511 1512 1512 1513 1512 1512 1512 1512 1512 1512 1512 1511 1511 1510 1509 1509 1508 1507 1506 1505 1504 1503 1502 1501 1500
1488 1489 1490 1491 1492 1493 1494 1496 1497 1498 1499 1500 1501 1502 1503 1504 1505 1506 1507 1508 1510 1509 1509 1509 1509 1509 1508 1508 1508 1507 1507 1506 1506 1505 1504 1503 1502 1501 1500 1499 1498 1497 1496
1485 1486 1487 1488 1489 1490 1491 1492 1493 1494 1495 1496 1497 1498 1499 1500 1501 1502 1503 1503 1504 1505 1504 1504 1505 1504 1504 1505 1504 1504 1503 1502 1502 1501 1500 1499 1498 1497 1496 1495 1494 1493 1492
1482 1483 1484 1485 1486 1487 1488 1489 1490 1490 1491 1492 1493 1494 1495 1496 1497 1498 1498 1499 1500 1500 1499 1500 1500 1500 1500 1500 1500 1499 1499 1498 1497 1497 1496 1495 1494 1493 1492 1491 1490 1489 1488
1479 1480 1481 1481 1482 1484 1485 1485 1486 1487 1487 1488 1489 1490 1491 1492 1493 1493 1494 1494 1495 1495 1495 1495 1495 1495 1496 1496 1496 1495 1494 1494 1493 1492 1492 1491 1490 1489 1488 1487 1486 1485 1483
1476 1477 1477 1478 1479 1480 1481 1482 1482 1483 1483 1484 1485 1486 1487 1488 1488 1489 1489 1490 1490 1491 1491 1491 1490 1491 1491 1491 1491 1491 1490 1489 1489 1488 1487 1487 1486 1485 1483 1482 1481 1480 1479
1473 1474 1474 1475 1475 1476 1477 1478 1478 1479 1479 1480 1481 1482 1482 1483 1484 1484 1485 1485 1486 1486 1486 1486 1486 1486 1486 1486 1486 1486 1485 1485 1484 1484 1483 1482 1481 1480 1479 1478 1477 1475 1474
1470 1470 1471 1471 1472 1473 1473 1473 1474 1475 1475 1476 1476 1477 1478 1478 1479 1480 1480 1481 1481 1481 1482 1482 1481 1481 1481 1481 1481 1481 1480 1480 1479 1479 1478 1477 1476 1475 1474 1473 1472 1471 1469
1467 1467 1468 1468 1468 1469 1469 1470 1470 1471 1471 1471 1472 1472 1473 1473 1474 1474 1475 1476 1476 1476 1476 1477 1476 1476 1476 1476 1476 1476 1476 1475 1474 1474 1473 1472 1472 1470 1469 1468 1467 1466 1464
1463 1464 1464 1464 1464 1465 1465 1466 1466 1467 1467 1467 1467 1467 1467 1468 1468 1469 1469 1470 1470 1470 1471 1472 1471 1470 1471 1471 1472 1471 1471 1470 1469 1468 1468 1466 1466 1465 1464 1463 1462 1461 1459
1459 1459 1460 1460 1460 1460 1461 1461 1462 1462 1462 1462 1462 1462 1463 1463 1463 1464 1464 1464 1464 1464 1465 1465 1466 1465 1466 1466 1466 1466 1465 1465 1464 1464 1463 1461 1460 1459 1458 1457 1456 1455 1454
1456 1456 1456 1456 1456 1456 1456 1457 1457 1457 1457 1457 1457 1458 1458 1458 1459 1459 1459 1458 1458 1459 1459 1459 1460 1460 1460 1460 1460 1461 1460 1459 1457 1457 1458 1457 1454 1453 1452 1451 1450 1449 1448
1452 1452 1451 1451 1451 1451 1451 1452 1452 1452 1452 1452 1453 1453 1454 1454 1454 1453 1454 1453 1453 1453 1453 1453 1453 1453 1453 1453 1454 1454 1454 1453 1452 1451 1451 1451 1449 1448 1445 1444 1444 1443 1442